Location: Berg
(48.4333°N, 13.9167°E)
Time: 03:09:46
(UTC+00:00)

Cosmos 990 Rocket - Pass Details

Date: 18 September 2020
Orbit: 746 x 769 km, 74.0° (Epoch: 24 October)

Event Time Altitude Azimuth Distance (km) Brightness Sun altitude
Rises 17:57:38 0° 203° (SSW) 3,179 7.4 -8.7°
Reaches altitude 10° 17:59:58 10° 204° (SSW) 2,258 6.6 -9.0°
Maximum altitude 18:05:06 83° 292° (WNW) 759 4.1 -9.9°
Drops below altitude 10° 18:10:16 10° 22° (NNE) 2,277 6.4 -10.7°
Sets 18:12:39 0° 23° (NNE) 3,208 7.1 -11.1°
